Starlink 30911

operational
NORAD ID: 58374 Int'l Des: 2023-178 Owner: SPXS Country: US Constellation: starlink
LEOCIRCULAR

关于 Starlink 30911

正在加载描述...

实时位置

正在加载3D地球...

即将过境

高度历史

Altitude vs Time

uPlot chart will show altitude changes over time

两行轨道根数

1 58374U 23178A 25351.52297331 -.00000745 00000-0 -13046-4 0 9992
2 58374 53.1618 22.5619 0001237 100.8448 259.2692 15.30193354117307
Epoch: Dec 17, 2025 • Age: 22 hours

当前状态

高度 475.4 km
速度 7.63 km/s
星下点 16.59°N, 145.01°E
发射日期 Nov 20, 2023
运行时间 2 years
类型 internet

技术详情

分类 Payload
质量 730.00 kg
干质量 700.00 kg
总质量 730.00 kg
长度 0.30 m
直径 4.10 m
跨度 29.00 m
形状 Box + pan
制造商 SPXS
平台类型 Starlink V2M
阶段状态 In Orbit
所有者/国家 SPXS/US

大型星座

Loading constellations...